Volver al catálogo

BREEZE-M DEB

ActivoHEO
NORAD 38650·DEBRIS·🇷🇺 Russia

Lanzado Mar 14, 2008 desde Baikonur Cosmodrome

Loading…

Próximos Pases (próximas 24 horas)

TLE

ActualizadoSource: Space-Track

Época: Sep 8, 2026, 10:11 UTC

1 38650U 08011CZ  26251.42465117 -.00000308  00000-0 -77838-2 0  9996
2 38650  49.2730   1.1786 6380250 230.4678 240.2577  3.06766490177470

Sigue BREEZE-M DEB en tiempo real con AllMySat

Download on the App Store